EW7937 Weather Reports


Display with metric or nautical units.
time (UTC)temp
F
wind
direction
speed
MPH
gust
MPH
rain 1hr
in
rain 24hr
in
rain mn
in
humidity
%
barometer
mb
20210506092757 70 314 0.0 0.0 0.00 0.00 0.00 46 1013.3
20210506092257 70 323 0.0 0.0 0.00 0.00 0.00 46 1013.2
20210506091757 70 323 0.0 0.0 0.00 0.00 0.00 46 1013.4
20210506091255 71 323 0.0 0.0 0.00 0.00 0.00 45 1013.3
20210506090756 71 324 0.0 0.0 0.00 0.00 0.00 45 1013.4
20210506090255 71 343 0.0 0.0 0.00 0.00 0.00 45 1013.5
20210506085756 71 344 0.0 0.0 0.00 0.00 0.00 44 1013.5
20210506085255 71 338 0.0 0.0 0.00 0.00 0.00 44 1013.6
20210506084757 72 323 0.0 0.0 0.00 0.00 0.00 43 1013.7
20210506084254 72 323 0.0 0.0 0.00 0.00 0.00 43 1013.6
20210506083757 72 323 0.0 0.0 0.00 0.00 0.00 43 1013.7
20210506083256 72 324 0.0 0.0 0.00 0.00 0.00 43 1013.8
20210506082755 72 310 0.0 0.0 0.00 0.00 0.00 43 1013.6
20210506082255 72 300 0.0 0.0 0.00 0.00 0.00 43 1013.7
20210506081754 73 317 0.0 2.0 0.00 0.00 0.00 42 1013.7
20210506081255 73 320 0.0 2.0 0.00 0.00 0.00 41 1013.7
20210506080753 73 321 0.0 1.0 0.00 0.00 0.00 41 1013.7
20210506080253 73 316 0.0 1.0 0.00 0.00 0.00 40 1013.7
20210506075754 74 306 0.0 0.0 0.00 0.00 0.00 40 1013.8
20210506075253 74 303 0.0 2.0 0.00 0.00 0.00 40 1013.8
20210506074753 74 302 0.0 2.0 0.00 0.00 0.00 39 1013.8
20210506074253 74 314 0.0 0.0 0.00 0.00 0.00 38 1013.8
20210506073754 74 288 0.0 5.0 0.00 0.00 0.00 38 1013.9
20210506073253 74 281 1.0 5.0 0.00 0.00 0.00 37 1013.9
20210506072752 75 283 0.0 3.0 0.00 0.00 0.00 37 1013.9
20210506072252 75 303 0.0 3.0 0.00 0.00 0.00 37 1013.9
20210506071754 75 310 0.0 3.0 0.00 0.00 0.00 37 1013.9
20210506071254 76 293 0.0 2.0 0.00 0.00 0.00 36 1013.8
20210506070752 76 309 0.0 4.0 0.00 0.00 0.00 36 1013.8
20210506070252 76 309 0.0 4.0 0.00 0.00 0.00 35 1013.9
20210506065753 76 310 0.0 7.0 0.00 0.00 0.00 35 1013.8
20210506065252 76 305 0.0 7.0 0.00 0.00 0.00 35 1013.9
20210506064752 77 307 0.0 6.0 0.00 0.00 0.00 35 1013.8
20210506064253 77 274 0.0 7.0 0.00 0.00 0.00 35 1013.7
20210506063752 77 306 0.0 7.0 0.00 0.00 0.00 34 1013.7
20210506063252 77 296 0.0 9.0 0.00 0.00 0.00 35 1013.7
20210506062752 77 320 0.0 9.0 0.00 0.00 0.00 35 1013.7
20210506062251 77 289 0.0 9.0 0.00 0.00 0.00 35 1013.7
20210506061751 77 313 0.0 9.0 0.00 0.00 0.00 34 1013.7
20210506061252 78 292 0.0 11.0 0.00 0.00 0.00 34 1013.6
20210506060751 78 298 1.0 11.0 0.00 0.00 0.00 34 1013.6
20210506060251 78 333 0.0 5.0 0.00 0.00 0.00 34 1013.7
20210506055750 78 317 1.0 9.0 0.00 0.00 0.00 34 1013.6
20210506055251 78 293 0.0 9.0 0.00 0.00 0.00 34 1013.5
20210506054752 78 314 0.0 4.0 0.00 0.00 0.00 34 1013.4
20210506054251 79 316 0.0 3.0 0.00 0.00 0.00 34 1013.4
20210506053750 79 299 0.0 7.0 0.00 0.00 0.00 35 1013.4
20210506053250 79 303 1.0 7.0 0.00 0.00 0.00 35 1013.4
20210506052752 79 329 0.0 9.0 0.00 0.00 0.00 36 1013.3
20210506052250 79 321 0.0 9.0 0.00 0.00 0.00 36 1013.3
20210506051751 80 336 0.0 11.0 0.00 0.00 0.00 36 1013.2
20210506051251 80 320 0.0 11.0 0.00 0.00 0.00 37 1013.2
20210506050748 80 320 1.0 6.0 0.00 0.00 0.00 37 1013.1
20210506050249 81 333 0.0 6.0 0.00 0.00 0.00 37 1013.0
20210506045750 81 347 0.0 9.0 0.00 0.00 0.00 36 1013.0
20210506045249 82 334 0.0 9.0 0.00 0.00 0.00 35 1012.9
20210506044749 82 347 1.0 6.0 0.00 0.00 0.00 35 1012.9
20210506044250 83 340 0.0 4.0 0.00 0.00 0.00 35 1012.8
20210506043751 83 326 0.0 7.0 0.00 0.00 0.00 37 1012.6
20210506043250 83 320 2.0 13.0 0.00 0.00 0.00 37 1012.5
20210506042749 83 309 2.0 13.0 0.00 0.00 0.00 37 1012.4
20210506042248 84 286 1.0 10.0 0.00 0.00 0.00 37 1012.2
20210506041748 84 309 1.0 5.0 0.00 0.00 0.00 36 1012.1
20210506041249 84 290 1.0 5.0 0.00 0.00 0.00 36 1012.1
20210506040749 84 321 0.0 4.0 0.00 0.00 0.00 36 1012.0
20210506040248 84 302 0.0 4.0 0.00 0.00 0.00 35 1011.8
20210506035747 84 309 0.0 4.0 0.00 0.00 0.00 35 1011.7
20210506035248 85 296 0.0 0.0 0.00 0.00 0.00 35 1011.7
20210506034748 85 303 0.0 0.0 0.00 0.00 0.00 34 1011.6
20210506034247 85 290 0.0 0.0 0.00 0.00 0.00 33 1011.7
20210506033748 85 302 0.0 0.0 0.00 0.00 0.00 33 1011.5
20210506033247 86 282 0.0 0.0 0.00 0.00 0.00 33 1011.4
20210506032748 86 271 0.0 0.0 0.00 0.00 0.00 32 1011.4
20210506032247 87 295 0.0 4.0 0.00 0.00 0.00 32 1011.3
20210506031748 87 295 0.0 5.0 0.00 0.00 0.00 31 1011.3
20210506031248 87 300 0.0 5.0 0.00 0.00 0.00 32 1011.2
20210506030746 87 296 0.0 3.0 0.00 0.00 0.00 31 1011.1
20210506030247 88 269 0.0 1.0 0.00 0.00 0.00 30 1011.1
20210506025746 88 272 0.0 1.0 0.00 0.00 0.00 30 1011.0
20210506025247 89 302 0.0 1.0 0.00 0.00 0.00 29 1011.0
20210506024746 89 269 0.0 1.0 0.00 0.00 0.00 29 1010.9
20210506024248 89 271 0.0 1.0 0.00 0.00 0.00 29 1010.9
20210506023747 90 272 0.0 4.0 0.00 0.00 0.00 29 1010.9
20210506023246 90 271 0.0 4.0 0.00 0.00 0.00 28 1010.8
20210506022747 90 266 0.0 4.0 0.00 0.00 0.00 28 1010.7
20210506022247 91 264 0.0 1.0 0.00 0.00 0.00 24 1010.7
20210506021746 91 302 0.0 0.0 0.00 0.00 0.00 23 1010.6
20210506021246 92 302 0.0 0.0 0.00 0.00 0.00 22 1010.5
20210506020745 92 302 0.0 0.0 0.00 0.00 0.00 21 1010.6
20210506020245 92 312 0.0 3.0 0.00 0.00 0.00 21 1010.6
20210506015747 92 324 0.0 3.0 0.00 0.00 0.00 21 1010.5
20210506015245 93 300 0.0 0.0 0.00 0.00 0.00 22 1010.6
20210506014744 93 302 0.0 3.0 0.00 0.00 0.00 22 1010.5
20210506014246 93 279 0.0 3.0 0.00 0.00 0.00 21 1010.5
20210506013745 94 290 0.0 0.0 0.00 0.00 0.00 22 1010.5
20210506013246 94 290 0.0 0.0 0.00 0.00 0.00 18 1010.5
20210506012746 94 290 0.0 0.0 0.00 0.00 0.00 19 1010.5
20210506012244 94 290 0.0 0.0 0.00 0.00 0.00 19 1010.6
20210506011744 95 316 0.0 1.0 0.00 0.00 0.00 20 1010.5
20210506011245 95 337 0.0 1.0 0.00 0.00 0.00 20 1010.6
20210506010745 95 292 0.0 0.0 0.00 0.00 0.00 19 1010.5
20210506010245 96 302 0.0 0.0 0.00 0.00 0.00 20 1010.6
20210506005743 96 313 0.0 0.0 0.00 0.00 0.00 21 1010.5
20210506005245 95 289 0.0 1.0 0.00 0.00 0.00 21 1010.5
20210506004743 95 317 0.0 3.0 0.00 0.00 0.00 21 1010.5
20210506004245 96 317 0.0 3.0 0.00 0.00 0.00 20 1010.5
20210506003745 96 338 0.0 3.0 0.00 0.00 0.00 22 1010.6
20210506003244 96 355 0.0 5.0 0.00 0.00 0.00 21 1010.5
20210506002749 96 298 1.0 5.0 0.00 0.00 0.00 21 1010.6
20210506002244 96 0 0.0 4.0 0.00 0.00 0.00 21 1010.5
20210506001744 96 0 0.0 4.0 0.00 0.00 0.00 20 1010.6
20210506001248 96 312 0.0 1.0 0.00 0.00 0.00 20 1010.7
20210506000747 96 338 0.0 0.0 0.00 0.00 0.00 19 1010.7
20210506000243 95 289 0.0 0.0 0.00 0.00 0.00 22 1010.7
20210505235742 96 299 0.0 0.0 0.00 0.00 0.00 20 1010.8
20210505235244 96 0 0.0 1.0 0.00 0.00 0.00 21 1010.8
20210505234743 96 355 0.0 1.0 0.00 0.00 0.00 19 1010.9
20210505234244 96 296 0.0 1.0 0.00 0.00 0.00 20 1010.9
20210505233743 96 350 0.0 1.0 0.00 0.00 0.00 20 1010.9
20210505233243 96 313 0.0 6.0 0.00 0.00 0.00 21 1011.0
20210505232743 96 296 0.0 6.0 0.00 0.00 0.00 21 1011.0
20210505232242 96 290 1.0 3.0 0.00 0.00 0.00 22 1010.9
20210505231741 96 276 0.0 3.0 0.00 0.00 0.00 21 1011.1
20210505231241 95 161 0.0 0.0 0.00 0.00 0.00 21 1011.1
20210505230742 95 235 0.0 4.0 0.00 0.00 0.00 20 1011.2
20210505230241 96 235 0.0 4.0 0.00 0.00 0.00 21 1011.2
20210505225742 95 219 0.0 2.0 0.00 0.00 0.00 20 1011.2
20210505225243 95 248 0.0 2.0 0.00 0.00 0.00 20 1011.3
20210505224741 95 223 0.0 2.0 0.00 0.00 0.00 22 1011.4
20210505224246 94 155 0.0 5.0 0.00 0.00 0.00 22 1011.4
20210505223742 95 192 0.0 6.0 0.00 0.00 0.00 21 1011.5
20210505223241 95 144 1.0 6.0 0.00 0.00 0.00 22 1011.5
20210505222741 95 292 0.0 3.0 0.00 0.00 0.00 22 1011.6
20210505222240 94 269 0.0 0.0 0.00 0.00 0.00 23 1011.6
20210505221740 95 254 0.0 0.0 0.00 0.00 0.00 22 1011.7
20210505221240 95 290 0.0 0.0 0.00 0.00 0.00 20 1011.8
20210505220741 95 207 0.0 0.0 0.00 0.00 0.00 22 1011.8
20210505220240 96 314 0.0 0.0 0.00 0.00 0.00 22 1011.9
20210505215741 95 305 0.0 1.0 0.00 0.00 0.00 25 1011.9
20210505215240 95 298 0.0 1.0 0.00 0.00 0.00 23 1011.9
20210505214739 96 303 0.0 0.0 0.00 0.00 0.00 21 1012.0
20210505214241 95 164 0.0 4.0 0.00 0.00 0.00 23 1012.1
20210505213738 94 173 0.0 4.0 0.00 0.00 0.00 22 1012.1
20210505213241 94 164 0.0 1.0 0.00 0.00 0.00 22 1012.2
20210505212740 94 157 0.0 2.0 0.00 0.00 0.00 22 1012.1
20210505212242 95 75 0.0 2.0 0.00 0.00 0.00 23 1012.2
20210505211740 94 104 0.0 1.0 0.00 0.00 0.00 24 1012.2
20210505211240 93 261 0.0 2.0 0.00 0.00 0.00 24 1012.3
20210505210739 94 202 0.0 2.0 0.00 0.00 0.00 24 1012.3
20210505210239 94 52 0.0 0.0 0.00 0.00 0.00 21 1012.4
20210505205738 93 120 0.0 0.0 0.00 0.00 0.00 24 1012.4
20210505205238 93 145 0.0 0.0 0.00 0.00 0.00 23 1012.4
20210505204740 93 164 0.0 1.0 0.00 0.00 0.00 25 1012.4
20210505204239 93 295 0.0 1.0 0.00 0.00 0.00 24 1012.6
20210505203739 93 219 0.0 1.0 0.00 0.00 0.00 25 1012.6
20210505203239 93 173 0.0 1.0 0.00 0.00 0.00 23 1012.6
20210505202738 92 151 0.0 1.0 0.00 0.00 0.00 24 1012.8
20210505202238 92 175 0.0 2.0 0.00 0.00 0.00 23 1012.8
20210505201738 92 216 0.0 2.0 0.00 0.00 0.00 25 1012.8
20210505201237 92 234 0.0 1.0 0.00 0.00 0.00 27 1012.9
20210505200738 92 217 0.0 3.0 0.00 0.00 0.00 27 1012.9
20210505200237 92 204 0.0 3.0 0.00 0.00 0.00 27 1012.9
20210505195738 91 72 0.0 5.0 0.00 0.00 0.00 26 1012.9
20210505195238 91 171 0.0 5.0 0.00 0.00 0.00 30 1013.1
20210505194738 91 193 0.0 1.0 0.00 0.00 0.00 28 1013.0
20210505194238 91 240 0.0 1.0 0.00 0.00 0.00 32 1013.2
20210505193737 90 185 0.0 5.0 0.00 0.00 0.00 29 1013.1
20210505193237 91 154 0.0 5.0 0.00 0.00 0.00 32 1013.2
20210505192739 91 138 0.0 5.0 0.00 0.00 0.00 30 1013.2
20210505192236 89 103 0.0 5.0 0.00 0.00 0.00 26 1013.4
20210505191736 89 212 0.0 6.0 0.00 0.00 0.00 32 1013.4
20210505191235 89 166 1.0 6.0 0.00 0.00 0.00 30 1013.5
20210505190737 89 200 0.0 4.0 0.00 0.00 0.00 34 1013.5
20210505190235 89 137 0.0 3.0 0.00 0.00 0.00 33 1013.6
20210505185737 88 165 0.0 6.0 0.00 0.00 0.00 32 1013.6
20210505185236 89 197 0.0 6.0 0.00 0.00 0.00 34 1013.6
20210505184735 87 172 0.0 3.0 0.00 0.00 0.00 32 1013.7
20210505184237 87 209 0.0 1.0 0.00 0.00 0.00 35 1013.7
20210505183736 86 182 0.0 6.0 0.00 0.00 0.00 34 1013.7
20210505183236 87 176 0.0 6.0 0.00 0.00 0.00 34 1013.8
20210505182737 87 149 0.0 6.0 0.00 0.00 0.00 35 1013.8
20210505182236 87 192 0.0 6.0 0.00 0.00 0.00 35 1013.8
20210505181736 87 179 0.0 6.0 0.00 0.00 0.00 34 1013.8
20210505181236 87 168 0.0 6.0 0.00 0.00 0.00 35 1013.9
20210505180734 86 125 0.0 6.0 0.00 0.00 0.00 40 1013.9
20210505180234 86 186 0.0 6.0 0.00 0.00 0.00 34 1013.8
20210505175734 86 127 0.0 5.0 0.00 0.00 0.00 35 1013.8
20210505175235 85 99 0.0 5.0 0.00 0.00 0.00 33 1013.8
20210505174734 85 138 0.0 5.0 0.00 0.00 0.00 32 1013.8
20210505174235 85 161 1.0 7.0 0.00 0.00 0.00 32 1013.8
20210505173736 85 135 0.0 9.0 0.00 0.00 0.00 32 1013.8
20210505173234 84 165 2.0 9.0 0.00 0.00 0.00 35 1013.9
20210505172734 84 165 0.0 6.0 0.00 0.00 0.00 36 1013.8
20210505172234 84 90 1.0 11.0 0.00 0.00 0.00 34 1013.8
20210505171733 83 158 2.0 11.0 0.00 0.00 0.00 35 1013.8
20210505171233 83 142 0.0 6.0 0.00 0.00 0.00 34 1013.8
20210505170735 83 159 0.0 6.0 0.00 0.00 0.00 38 1013.8
20210505170234 83 162 0.0 6.0 0.00 0.00 0.00 35 1013.8
20210505165733 83 155 2.0 6.0 0.00 0.00 0.00 38 1013.9
20210505165232 82 145 0.0 5.0 0.00 0.00 0.00 41 1013.9
20210505164734 82 152 0.0 3.0 0.00 0.00 0.00 35 1013.9
20210505164235 81 94 0.0 4.0 0.00 0.00 0.00 37 1013.9
20210505163732 81 127 0.0 5.0 0.00 0.00 0.00 35 1013.9
20210505163232 80 125 1.0 5.0 0.00 0.00 0.00 36 1014.0
20210505162732 80 97 1.0 4.0 0.00 0.00 0.00 37 1014.1
20210505162232 79 173 0.0 4.0 0.00 0.00 0.00 40 1014.1
20210505161733 79 165 0.0 4.0 0.00 0.00 0.00 43 1014.0
20210505161235 78 149 0.0 1.0 0.00 0.00 0.00 38 1014.0
20210505160732 77 140 0.0 4.0 0.00 0.00 0.00 41 1014.0
20210505160232 77 124 0.0 4.0 0.00 0.00 0.00 39 1014.0
20210505155735 76 137 0.0 2.0 0.00 0.00 0.00 41 1013.9
20210505155231 76 116 0.0 2.0 0.00 0.00 0.00 42 1014.0
20210505154732 76 154 0.0 0.0 0.00 0.00 0.00 44 1014.0
20210505154231 75 110 0.0 0.0 0.00 0.00 0.00 44 1013.9
20210505153731 74 83 0.0 3.0 0.00 0.00 0.00 45 1013.9
20210505153234 74 144 0.0 3.0 0.00 0.00 0.00 45 1014.0
20210505152732 73 169 0.0 3.0 0.00 0.00 0.00 47 1014.0
20210505152232 73 188 0.0 1.0 0.00 0.00 0.00 48 1013.9
20210505151730 72 158 0.0 3.0 0.00 0.00 0.00 49 1014.0
20210505151232 71 161 0.0 3.0 0.00 0.00 0.00 53 1014.0
20210505150731 68 116 0.0 0.0 0.00 0.00 0.00 56 1014.0
20210505150232 65 149 0.0 0.0 0.00 0.00 0.00 62 1014.0
20210505145730 64 165 0.0 0.0 0.00 0.00 0.00 64 1014.0
20210505145231 62 279 0.0 0.0 0.00 0.00 0.00 66 1014.0
20210505144733 62 275 0.0 1.0 0.00 0.00 0.00 67 1013.9
20210505144232 61 292 0.0 1.0 0.00 0.00 0.00 68 1013.9
20210505143731 60 271 0.0 0.0 0.00 0.00 0.00 68 1013.9
20210505143230 60 314 0.0 0.0 0.00 0.00 0.00 69 1014.0
20210505142730 59 313 0.0 0.0 0.00 0.00 0.00 69 1013.9
20210505142228 59 313 0.0 0.0 0.00 0.00 0.00 70 1013.9
20210505141730 59 314 0.0 0.0 0.00 0.00 0.00 70 1013.8
20210505141228 59 314 0.0 0.0 0.00 0.00 0.00 71 1013.9
20210505140728 58 314 0.0 0.0 0.00 0.00 0.00 70 1013.8
20210505140229 58 314 0.0 0.0 0.00 0.00 0.00 70 1013.8
20210505135730 58 314 0.0 0.0 0.00 0.00 0.00 69 1013.7
20210505135229 58 317 0.0 0.0 0.00 0.00 0.00 69 1013.6
20210505134729 58 334 0.0 0.0 0.00 0.00 0.00 68 1013.6
20210505134227 58 334 0.0 0.0 0.00 0.00 0.00 67 1013.5
20210505133727 58 334 0.0 0.0 0.00 0.00 0.00 66 1013.4
20210505133229 58 334 0.0 0.0 0.00 0.00 0.00 66 1013.4
20210505132727 59 334 0.0 0.0 0.00 0.00 0.00 66 1013.4
20210505132227 59 334 0.0 0.0 0.00 0.00 0.00 65 1013.3
20210505131729 59 334 0.0 0.0 0.00 0.00 0.00 65 1013.3
20210505131227 59 334 0.0 0.0 0.00 0.00 0.00 65 1013.3
20210505130727 59 334 0.0 0.0 0.00 0.00 0.00 65 1013.2
20210505130228 59 334 0.0 0.0 0.00 0.00 0.00 65 1013.2
20210505125726 59 334 0.0 0.0 0.00 0.00 0.00 64 1013.1
20210505125227 59 334 0.0 0.0 0.00 0.00 0.00 65 1013.2
20210505124727 60 334 0.0 0.0 0.00 0.00 0.00 64 1013.1
20210505124227 60 334 0.0 0.0 0.00 0.00 0.00 64 1013.1
20210505123725 60 334 0.0 0.0 0.00 0.00 0.00 64 1013.1
20210505123227 60 334 0.0 0.0 0.00 0.00 0.00 63 1013.1
20210505122726 60 334 0.0 0.0 0.00 0.00 0.00 63 1013.1
20210505122227 60 334 0.0 0.0 0.00 0.00 0.00 63 1013.1
20210505121727 60 334 0.0 0.0 0.00 0.00 0.00 64 1013.1
20210505121227 60 334 0.0 0.0 0.00 0.00 0.00 63 1013.1
20210505120725 60 334 0.0 0.0 0.00 0.00 0.00 64 1013.0
20210505120227 60 334 0.0 0.0 0.00 0.00 0.00 64 1013.1
20210505115726 60 334 0.0 0.0 0.00 0.00 0.00 64 1013.2
20210505115225 60 334 0.0 0.0 0.00 0.00 0.00 61 1013.2
20210505114726 60 334 0.0 0.0 0.00 0.00 0.00 61 1013.2
20210505114226 60 334 0.0 0.0 0.00 0.00 0.00 62 1013.3
20210505113724 60 334 0.0 0.0 0.00 0.00 0.00 63 1013.2
20210505113225 61 334 0.0 0.0 0.00 0.00 0.00 64 1013.2
20210505112724 61 334 0.0 0.0 0.00 0.00 0.00 65 1013.2
20210505112224 61 258 0.0 0.0 0.00 0.00 0.00 64 1013.3
20210505111726 61 258 0.0 0.0 0.00 0.00 0.00 65 1013.2
20210505111225 61 258 0.0 0.0 0.00 0.00 0.00 64 1013.2
20210505110724 61 258 0.0 0.0 0.00 0.00 0.00 64 1013.2
20210505110224 62 258 0.0 0.0 0.00 0.00 0.00 64 1013.2
20210505105724 62 258 0.0 0.0 0.00 0.00 0.00 64 1013.3
20210505105225 62 258 0.0 0.0 0.00 0.00 0.00 63 1013.3
20210505104724 62 258 0.0 0.0 0.00 0.00 0.00 63 1013.2
20210505104224 62 258 0.0 0.0 0.00 0.00 0.00 63 1013.3
20210505103723 62 258 0.0 0.0 0.00 0.00 0.00 63 1013.3
20210505103225 62 258 0.0 0.0 0.00 0.00 0.00 62 1013.3
20210505102723 63 258 0.0 0.0 0.00 0.00 0.00 62 1013.3
20210505102223 63 258 0.0 0.0 0.00 0.00 0.00 63 1013.2
20210505101722 63 258 0.0 0.0 0.00 0.00 0.00 62 1013.2
20210505101223 63 258 0.0 0.0 0.00 0.00 0.00 62 1013.1
20210505100724 63 258 0.0 0.0 0.00 0.00 0.00 62 1013.1
20210505100223 64 258 0.0 0.0 0.00 0.00 0.00 62 1013.1
20210505095723 64 258 0.0 0.0 0.00 0.00 0.00 61 1013.1
20210505095222 64 258 0.0 0.0 0.00 0.00 0.00 61 1013.1
20210505094722 64 258 0.0 0.0 0.00 0.00 0.00 60 1013.1
20210505094223 64 258 0.0 0.0 0.00 0.00 0.00 60 1013.0
20210505093722 65 258 0.0 0.0 0.00 0.00 0.00 59 1012.9
20210505093222 65 258 0.0 0.0 0.00 0.00 0.00 59 1012.9